Showing default

GEESAT 1-08, 52792

Orbit data source: Space-Track

GEESAT 1-08, 52792 is a payload satellite owned by GeeSpace (CN) in LEO that was launched on Thu, 02 Jun 2022 UTC via a CHANG ZHENG 2C launch vehicle from the Xichang Space Center, China (XSC). Payload-class satellites include a variety of spacecraft equipped with specific instruments for various scientific and technological missions. These include communications satellites like Starlink; space stations such as the ISS; scientific satellites like the Hubble; Earth observation satellites from companies like Planet Labs, Umbra, and HawkEye 360; GPS; miniature CubeSats for education and research; and military/defense satellites.

Loading next visibility...
Identifier
52792, 2022-058H
Orbit
LEO
Country
Flag of CNCN / PRC
Related business
Manufacturer
GWCG
Mission
Operational Commercial Navigation
Bus & Motor
GPS100, Unknown motor
Mass
130 kg wet, 130 kg dry
Launch date (UTC)
2022-06-02 (4 years ago)
Launch vehicle
CHANG ZHENG 2C
Launch site
Xichang Space Center, China (XSC)
Object type
Payload
Rocket body
Debris
Shape & HBR
Box + 2 Pan, 1.0 m
Radar Cross Section
0.833 m², Large (>1 m²)

Expand to show TLE details & history
Last TLE update: 2 days ago

TLE from 2 days ago
0 GEESAT 1-08
1 52792U 22058H   26171.41872238  .00000955  00000-0  14901-3 0  9991
2 52792  49.9923 186.6305 0020473 301.9263  57.9683 14.81388916220418
Epoch: 2026-06-20T10:02Z
TLE epoch observation values (Epoch: 2026-06-20T10:02:57.613Z)
Latitude
-0.00003°
Longitude
127.2568°
Altitude
617.903 km
Speed
7.555 km/s
True Right ascension
12h 26m 31s
True Declination
0° 00' 00"
Sunlit
Object was in daylight at epoch
Visualization orbit readout
Latitude
Unknown
Longitude
Unknown
Altitude
Unknown
Speed
Unknown
Apparent Right ascension
Unknown
Apparent Declination
Unknown
Sunlit
N/A
Visualization observer readout
Local Sidereal Time
00:55:22
Azimuth
Unknown
Elevation
Unknown
Doppler factor
Unknown
Orbital elements
Apogee altitude
640.041 km
Perigee altitude
611.363 km
Semi-major axis
7,003.839 km
Eccentricity
0.00205
Inclination
49.9923°
RAAN
186.6305°
Arg. of periapsis
301.9263°
True anomaly
58.16746°
Mean anomaly
57.9683°
Eccentric anomaly
58.06785°
Mean motion
3.70287 °/min
Orbital period
97.22 mins
BSTAR
0.00014901
Loading maneuver chart data...
Computing Atmospheric mass density...
Loading historical data...
Loading historical data...
Loading historical data...
Loading historical data...
Loading historical data...
Loading historical data...
Loading historical data...

Documentation

Showing up to 5 results
|